Inquirer Daily News

Weather

Get conditions and forecasts for any City, State, ZIP code or Country:  
Trenton, NJ
on Sunday, November 18, 2012

Sunday
Previous Day Next Day
Daily Summary
 ActualAverageRecord
Temperature
Mean Temperature °F 45°F  
Max Temperature 50°F 54°F 76°F (1921)
Min Temperature 34°F 37°F 18°F (1936)
Degree Days
Heating Degree Days 23 20  
Month to date heating degree days 392 313  
Since 1 July heating degree days 699 710  
Cooling Degree Days 0 0  
Month to date cooling degree days 0 0  
Year to date cooling degree days 1234 965  
Moisture
Dew Point 32°F   
Average Humidity 65    
Maximum Humidity 76    
Minimum Humidity 54    
Precipitation
Precipitation 0.00 in 0.12 in 1.06 in (1911)
Month to date precipitation 0.58 1.89  
Year to date precipitation 32.63 41.32  
Wind
Wind Speed 7 mph   
Max Wind Speed 13 mph   
Max Gust Speed 16 mph   
Visibility 10 miles   
Events     

Key: T is trace of precipitation, MM is missing value
Source: NWS Daily Summary
Time(EST)TemperatureDew PointHumidity Pressure Visibility Wind DirectionWind SpeedGust SpeedPrecipitationEvents Conditions
12:53 AM 37.0°F 28.9°F 73% 30.60 in 9.0 miles NNE 5.8 mph - N/A   Clear
1:53 AM 36.0°F 28.0°F 73% 30.61 in 10.0 miles NNE 5.8 mph - N/A   Clear
2:53 AM 36.0°F 28.0°F 73% 30.60 in 10.0 miles NNE 5.8 mph - N/A   Clear
3:53 AM 35.1°F 28.0°F 76% 30.60 in 10.0 miles NNE 6.9 mph - N/A   Clear
4:53 AM 37.0°F 28.0°F 70% 30.61 in 10.0 miles NE 4.6 mph - N/A   Clear
5:53 AM 36.0°F 28.0°F 73% 30.61 in 10.0 miles NE 4.6 mph - N/A   Clear
6:53 AM 35.1°F 28.0°F 76% 30.63 in 10.0 miles NNE 4.6 mph - N/A   Mostly Cloudy
7:53 AM 37.9°F 28.9°F 70% 30.63 in 10.0 miles NE 5.8 mph - N/A   Mostly Cloudy
8:53 AM 39.9°F 32.0°F 73% 30.63 in 10.0 miles ENE 10.4 mph - N/A   Clear
9:53 AM 45.0°F 35.1°F 68% 30.64 in 9.0 miles East 9.2 mph - N/A   Partly Cloudy
10:53 AM 48.0°F 33.1°F 56% 30.63 in 10.0 miles East 9.2 mph - N/A   Clear
11:53 AM 48.9°F 32.0°F 52% 30.60 in 10.0 miles East 8.1 mph - N/A   Partly Cloudy
12:53 PM 48.9°F 36.0°F 61% 30.59 in 10.0 miles ESE 10.4 mph - N/A   Partly Cloudy
1:53 PM 48.9°F 37.0°F 64% 30.58 in 10.0 miles East 9.2 mph - N/A   Scattered Clouds
2:53 PM 48.9°F 36.0°F 61% 30.57 in 10.0 miles East 6.9 mph - N/A   Scattered Clouds
3:53 PM 46.9°F 36.0°F 66% 30.57 in 10.0 miles East 8.1 mph - N/A   Clear
4:53 PM 45.0°F 34.0°F 65% 30.57 in 10.0 miles East 4.6 mph - N/A   Clear
5:53 PM 44.1°F 33.1°F 65% 30.57 in 10.0 miles East 3.5 mph - N/A   Clear
6:53 PM 42.1°F 34.0°F 73% 30.57 in 10.0 miles East 4.6 mph - N/A   Clear
7:53 PM 41.0°F 34.0°F 76% 30.58 in 9.0 miles NNE 5.8 mph - N/A   Clear
8:24 PM 42.8°F 33.8°F 70% 30.58 in 10.0 miles NNE 5.8 mph - N/A   Mostly Cloudy
8:51 PM 41.0°F 32.0°F 70% 30.58 in 10.0 miles NNE 5.8 mph - N/A   Scattered Clouds
8:53 PM 39.9°F 32.0°F 73% 30.57 in 10.0 miles NNE 5.8 mph - N/A   Scattered Clouds
9:53 PM 41.0°F 32.0°F 70% 30.56 in 10.0 miles NNE 5.8 mph - N/A   Clear
10:53 PM 42.1°F 33.1°F 70% 30.54 in 10.0 miles NNE 8.1 mph - N/A   Overcast
11:53 PM 42.1°F 32.0°F 67% 30.53 in 10.0 miles NE 6.9 mph - N/A   Overcast
Astronomy
Sunrise:06:49 AM (EST) Moon Rise:11:14 AM (EST)11/18
Sunset:04:39 PM (EST) Moon Set:09:56 PM (EST)11/18
Moon Phase
Nov. 18 Nov. 20 Nov. 28 Dec. 06 Dec. 13

Copyright © 2014 The Weather Underground, Inc.